Simultaneous Nadir Overpasses (SNOs) Predictions

Prediction of SNOs between GOES-15 and METOP-A Satellite Orbit:

Table of predicted SNOs for the next 14.0 days since TLE Epoch: 2/26/2016
Index Date Time (GOES-15) GOES-15 Lat,Lon METOP-A Lat,Lon Distance(km) Time Diff (sec)
1 02/27/2016 18:31:29 0.05,-135.16 0.24,-135.90 85.96 80
2 02/28/2016 18:13:31 0.05,-135.13 -0.87,-130.91 480.56 80
3 03/01/2016 06:32:33 -0.05,-135.11 -0.14,-135.52 46.52 80
4 03/03/2016 18:28:07 0.04,-135.03 0.05,-135.09 6.80 80
5 03/06/2016 06:26:30 -0.04,-134.96 0.05,-134.70 30.73 80
6 03/07/2016 18:45:22 0.03,-134.89 1.03,-139.25 496.83 80
7 03/08/2016 18:27:23 0.04,-134.86 -0.09,-134.25 68.23 80
8 03/10/2016 06:46:26 -0.04,-134.82 -0.92,-138.86 460.41 80
9 03/11/2016 06:23:06 -0.04,-134.77 0.15,-133.86 104.17 80




NCC Satellite Simultaneous Nadir Overpasses (SNOs) Prediction Service
